Regional Weather Roundup
Issued by NWS

Home | Current Version | Previous Version | Text Only | Print | Product List | Glossary On
Versions: 1 2 3 4 5 6 7 8 9 10 11 12 13 14 15 16 17 18 19 20 21 22 23 24 25 26 27 28 29 30 31 32 33 34 35 36 37 38 39 40 41 42 43 44 45 46 47 48 49 50
685
ASUS44 KJAN 100510
RWRMS

MISSISSIPPI HOURLY WEATHER ROUNDUP
NATIONAL WEATHER SERVICE JACKSON MS
1100 PM CST TUE FEB 09 2016

NOTE: "FAIR: INDICATES FEW OR NO CLOUDS BELOW 12,000 FEET WITH NO
SIGNIFICANT WEATHER AND/OR OBSTRUCTIONS TO VISIBILITY.

MSZ001>002-007>008-010>013-018>021-025>028-034>036-100600-
NORTHWEST MISSISSIPPI

CITY           SKY/WX    TMP DP  RH WIND       PRES   REMARKS
CLEVELAND      FAIR      31  20  64 NW3       30.22S
GREENWOOD      CLEAR     27  18  69 CALM      30.21R
GREENVILLE     CLEAR     31  18  58 CALM      30.22R
OLIVE BRANCH   CLEAR     27  14  59 W6        30.17S WCI  20
OXFORD         FAIR      25  14  63 CALM      30.18S
TUNICA         CLEAR     27  18  69 NW6       30.21R WCI  20
$$

MSZ003>006-009-014>017-022>024-029>033-037>039-100600-
NORTHEAST MISSISSIPPI

CITY           SKY/WX    TMP DP  RH WIND       PRES   REMARKS
COLUMBUS AFB   PTCLDY    29  15  55 N3        30.17S
CORINTH        FAIR      23  16  74 CALM      30.15R
GOLDN TRIANGLE PTCLDY    27  12  54 N3        30.16F
STARKVILLE       N/A     28  16  59 CALM      30.19R
TUPELO         PTCLDY    28  12  51 W3        30.16F
$$

MSZ040-058-100600-
CENTRAL MISSISSIPPI

CITY           SKY/WX    TMP DP  RH WIND       PRES   REMARKS
JACKSON INTL   PTCLDY    37  17  44 N10       30.19R WCI  30
JACKSON HAWKNS CLEAR     37  15  40 N7        30.20R WCI  32
MERIDIAN KEY   CLEAR     34  17  50 N10       30.19R WCI  26
MERIDIAN NAS   CLEAR     32  15  49 N7        30.19R WCI  26
VICKSBURG      CLEAR     41  18  39 NE14      30.22R
$$

MSZ059>079-100600-
SOUTH MISSISSIPPI

CITY           SKY/WX    TMP DP  RH WIND       PRES   REMARKS
BROOKHAVEN     FAIR      43  21  42 W3        30.20R
HATTIESBURG    CLEAR     37  22  54 NW3       30.19R
MCCOMB         CLEAR     36  24  62 N3        30.20R
NATCHEZ        CLEAR     46  18  31 NW14G20   30.21R
PINE BELT      CLEAR     32  19  59 NW3       30.19R
$$

MSZ080>082-100600-
COASTAL MISSISSIPPI

CITY           SKY/WX    TMP DP  RH WIND       PRES   REMARKS
BILOXI         CLEAR     41  27  57 W5        30.18R
PASCAGOULA     CLEAR     34  28  79 W3        30.18S
GULFPORT       CLEAR     38  24  57 W3        30.19R
$$




USA.gov is the U.S. government's official web portal to all federal, state and local government web resources and services.